Regional Weather Roundup
Issued by NWS

Home | Current Version | Previous Version | Graphics & Text | Print | Product List | Glossary On
Versions: 1 2 3 4 5 6 7 8 9 10 11 12 13 14 15 16 17 18 19 20 21 22 23 24 25 26 27 28 29 30 31 32 33 34 35 36 37 38 39 40 41 42 43 44 45 46 47 48 49 50
596
ASUS43 KBIS 220410
RWRND

NORTH DAKOTA REGIONAL WEATHER ROUNDUP
NATIONAL WEATHER SERVICE BISMARCK ND
1000 PM CST SUN JAN 21 2018

NOTE: "FAIR" INDICATES FEW OR NO CLOUDS BELOW 12,000 FEET WITH NO
SIGNIFICANT WEATHER AND/OR OBSTRUCTIONS TO VISIBILITY.


NDZ001>003-009>011-017-220500-
NORTHWEST NORTH DAKOTA

CITY           SKY/WX    TMP DP  RH WIND       PRES   REMARKS
WILLISTON      CLEAR     15  11  83 SW7       30.02R WCI   5
MINOT          CLEAR     17  14  88 S5        30.01S WCI  10
MINOT AFB      CLEAR     14  11  89 S6        30.00S WCI   5
$$

NDZ018>021-031>035-040>046-220500-
SOUTHWEST NORTH DAKOTA

CITY           SKY/WX    TMP DP  RH WIND       PRES   REMARKS
BISMARCK       PTCLDY    16  15  96 NE7       30.06S FOG     WCI   6
DICKINSON      CLEAR     19  16  88 W6        29.99F WCI  11
GARRISON         N/A     13  11  92 CALM      30.02R
HETTINGER ARPT CLEAR     19  16  88 NW3       30.03S
$$

NDZ004>008-012>016-024-026-027-054-220500-
NORTHEAST NORTH DAKOTA

CITY           SKY/WX    TMP DP  RH WIND       PRES   REMARKS
GRAND FORKS    CLOUDY    24  21  88 N5        30.13R WCI  18
GRND FRKS AFB  CLOUDY    23  21  93 CALM      30.12S
DEVILS LAKE    CLOUDY    22  21  96 SE9       30.08F FOG     WCI  12
$$

NDZ022-023-025-028>030-036>039-047>053-220500-
SOUTHEAST NORTH DAKOTA

CITY           SKY/WX    TMP DP  RH WIND       PRES   REMARKS
FARGO          CLOUDY    26  22  84 NE14      30.09S WCI  14
JAMESTOWN      CLOUDY    26  23  88 E6        30.06F WCI  19
$$





USA.gov is the U.S. government's official web portal to all federal, state and local government web resources and services.